FENGYUN 1C DEB

Satellite information

Favourite Embed

Satellite Type and Status

DEBRISIN ORBIT

Key statistics

Satellite FENGYUN 1C DEB at a glance.

Uptime

9714

Days in orbit

Revolutions

≈ 14.2

Per day

Orbit

SSO

Sun Synchronous Orbit

Inclination

98.5

Latest

Satellite identification and parameters

Extended collection of information and parameters for FENGYUN 1C DEB.

Object identification

Identified? True

Debris? True

Object name: FENGYUN 1C DEB

International designator: 1999-025AXL

Object number (NORAD): 30874

Object ID (CCSDS): 30874

Country: PEOPLES REPUBLIC OF CHINA (PRC)

Current information (Y/N): Y

RCS size: SMALL

Orbital parameters

Period: 101.434 minutes

Inclination: 98.4902 deg

SMA: 7204.682 km

Apoapsis: 856.834 km

Periapsis: 796.261 km

RAAN: 16.6937 deg

Eccentricy: 0.00420369

Argument of periapsis: 42.5364 deg

Mean anomaly: 346.9958 deg

Mean motion: 14.19647455 rev/day

Mean motion (dot): 0.00001343 rev/day2

B* drag term: 0.00064974589 1/REarth

Two-line elements (TLE)

Creation date: Dec. 12, 2025, 10:14 a.m.

Reference frame: TEME

Reference center: EARTH

Epoch: Dec. 12, 2025, 1:18 a.m. UTC

TLE line 0: 0 FENGYUN 1C DEB

TLE line 1: 1 30874U 99025AXL 25346.05443135 .00001343 00000-0 64975-3 0 9997

TLE line 2: 2 30874 98.4902 16.6937 0042037 42.5364 346.9958 14.19647455970116

Live tracking on map

Real-time ground track for satellite FENGYUN 1C DEB.

In-orbit conjunctions

A list of the most updated potential collisions computed for object FENGYUN 1C DEB.

Target Orbit TCA Probability of collision Miss distance Type
COSMOS 2237 LEO 2024-12-22 04:29:03 0.0001149727 89.0 (m) PAYLOAD
CZ-6A DEB LEO 2024-11-01 18:59:17 0.0001939256 330.0 (m) DEBRIS
CZ-4 DEB SSO 2024-05-26 22:29:18 0.0001160542 238.0 (m) DEBRIS

Associated space launch

Chinese polar orbiting meteorological satellite

FENGYUN 1C DEB was lifted into orbit during the mission ‘Long March 4B | Feng Yun 1C’, on board a Long March 4B space rocket.

The launch took place on May 10, 1999, 1:33 a.m. from Launch Complex 7.

For more information about the launch, click the button.

Launch to space Long March 4B | Feng Yun 1C
Long March 4B | Feng Yun 1C

Agency: N/A

Status: Launch Successful

Launch date: May 10, 1999, 1:33 a.m. UTC

Rocket: Long March 4B

Launch pad: Launch Complex 7

Location: Taiyuan Satellite Launch Center, People's Republic of China

...

Latest news about this satellite

There are no fresh news available about this satellite. Check back as we update our databases every day.


Newsletter sign-up

Weekly statistics, charts and insights to help you stay on top of the space industry.